"Period start","avg(HW err(1)/warn(2) (#))","avg(Visibility (m))","avg(Weather code (#))","avg(Precip intensity (mm/h))","min(HW err(1)/warn(2) (#))","max(HW err(1)/warn(2) (#))","std(HW err(1)/warn(2) (#))","med(HW err(1)/warn(2) (#))","min(Visibility (m))","max(Visibility (m))","std(Visibility (m))","med(Visibility (m))","min(Weather code (#))","max(Weather code (#))","std(Weather code (#))","med(Weather code (#))","min(Precip intensity (mm/h))","max(Precip intensity (mm/h))","std(Precip intensity (mm/h))","med(Precip intensity (mm/h))"
2017-08-21 00:00:00,0,48084,0,0.00,0,0,0,0,41189,50000,2805,49977,0,0,0,0,0.00,0.00,0.00,0.00
2017-08-21 00:10:00,0,48301,0,0.00,0,0,0,0,39521,50000,3209,50000,0,0,0,0,0.00,0.00,0.00,0.00
2017-08-21 00:20:00,0,47186,0,0.00,0,0,0,0,42501,50000,2799,48060,0,0,0,0,0.00,0.00,0.00,0.00
2017-08-21 00:30:00,0,48956,0,0.00,0,0,0,0,44212,50000,1861,50000,0,0,0,0,0.00,0.00,0.00,0.00
2017-08-21 00:40:00,0,46672,0,0.00,0,0,0,0,38823,50000,4103,48372,0,0,0,0,0.00,0.00,0.00,0.00
2017-08-21 00:50:00,0,48478,0,0.00,0,0,0,0,44548,50000,1914,49622,0,0,0,0,0.00,0.00,0.00,0.00
2017-08-21 01:00:00,0,48675,0,0.00,0,0,0,0,43017,50000,2255,50000,0,0,0,0,0.00,0.00,0.00,0.00
2017-08-21 01:10:00,0,49321,0,0.00,0,0,0,0,46651,50000,1161,50000,0,0,0,0,0.00,0.00,0.00,0.00
2017-08-21 01:20:00,0,49468,0,0.00,0,0,0,0,47487,50000,873,50000,0,0,0,0,0.00,0.00,0.00,0.00
2017-08-21 01:30:00,0,49847,0,0.00,0,0,0,0,48471,50000,459,50000,0,0,0,0,0.00,0.00,0.00,0.00
2017-08-21 01:40:00,0,46957,0,0.00,0,0,0,0,37240,50000,3909,48644,0,0,0,0,0.00,0.00,0.00,0.00
2017-08-21 01:50:00,0,44960,0,0.00,0,0,0,0,31760,50000,5239,46548,0,0,0,0,0.00,0.00,0.00,0.00
2017-08-21 02:00:00,0,49179,0,0.00,0,0,0,0,46915,50000,1233,50000,0,0,0,0,0.00,0.00,0.00,0.00
2017-08-21 02:10:00,0,49829,0,0.00,0,0,0,0,48935,50000,355,50000,0,0,0,0,0.00,0.00,0.00,0.00
2017-08-21 02:20:00,0,49843,0,0.00,0,0,0,0,48807,50000,360,50000,0,0,0,0,0.00,0.00,0.00,0.00
2017-08-21 02:30:00,0,49772,0,0.00,0,0,0,0,48799,50000,418,50000,0,0,0,0,0.00,0.00,0.00,0.00
2017-08-21 02:40:00,0,49957,0,0.00,0,0,0,0,49567,50000,130,50000,0,0,0,0,0.00,0.00,0.00,0.00
2017-08-21 02:50:00,0,38113,45,1.99,0,0,0,0,22808,50000,9328,37573,0,61,23,52,0.00,5.55,2.07,1.10
2017-08-21 03:00:00,0,45566,55,1.30,0,0,0,0,21265,50000,8229,47756,0,61,18,61,0.00,6.15,1.82,0.50
2017-08-21 03:10:00,0,49372,0,0.00,0,0,0,0,46804,50000,1019,50000,0,0,0,0,0.00,0.00,0.00,0.00
2017-08-21 03:20:00,0,48747,0,0.00,0,0,0,0,44421,50000,1701,49572,0,0,0,0,0.00,0.00,0.00,0.00
2017-08-21 03:30:00,0,49551,0,0.00,0,0,0,0,46504,50000,1058,50000,0,0,0,0,0.00,0.00,0.00,0.00
2017-08-21 03:40:00,0,49252,0,0.00,0,0,0,0,46147,50000,1347,50000,0,0,0,0,0.00,0.00,0.00,0.00
2017-08-21 03:50:00,0,49611,0,0.00,0,0,0,0,48062,50000,645,50000,0,0,0,0,0.00,0.00,0.00,0.00
2017-08-21 04:00:00,0,48380,0,0.00,0,0,0,0,41192,50000,2852,50000,0,0,0,0,0.00,0.00,0.00,0.00
2017-08-21 04:10:00,0,49260,0,0.00,0,0,0,0,44710,50000,1642,50000,0,0,0,0,0.00,0.00,0.00,0.00
2017-08-21 04:20:00,0,38959,0,0.00,0,0,0,0,19044,50000,12239,44398,0,0,0,0,0.00,0.00,0.00,0.00
2017-08-21 04:30:00,0,24848,0,0.00,0,0,0,0,12503,42514,9182,23337,0,0,0,0,0.00,0.00,0.00,0.00
2017-08-21 04:40:00,0,49047,0,0.00,0,0,0,0,46276,50000,1337,49617,0,0,0,0,0.00,0.00,0.00,0.00
2017-08-21 04:50:00,0,48222,0,0.00,0,0,0,0,43586,50000,2377,49587,0,0,0,0,0.00,0.00,0.00,0.00
2017-08-21 05:00:00,0,49710,0,0.00,0,0,0,0,49058,50000,395,50000,0,0,0,0,0.00,0.00,0.00,0.00
2017-08-21 05:10:00,0,49793,0,0.00,0,0,0,0,48911,50000,357,50000,0,0,0,0,0.00,0.00,0.00,0.00
2017-08-21 05:20:00,0,48250,0,0.00,0,0,0,0,43505,50000,2162,49576,0,0,0,0,0.00,0.00,0.00,0.00
2017-08-21 05:30:00,0,44418,0,0.00,0,0,0,0,39425,50000,3034,43854,0,0,0,0,0.00,0.00,0.00,0.00
2017-08-21 05:40:00,0,46394,0,0.00,0,0,0,0,36810,50000,4104,47565,0,0,0,0,0.00,0.00,0.00,0.00
2017-08-21 05:50:00,0,46015,0,0.00,0,0,0,0,38117,50000,4403,48339,0,0,0,0,0.00,0.00,0.00,0.00
2017-08-21 06:00:00,0,47810,0,0.00,0,0,0,0,43468,50000,2170,48832,0,0,0,0,0.00,0.00,0.00,0.00
2017-08-21 06:10:00,0,46044,0,0.00,0,0,0,0,41364,50000,2982,45674,0,0,0,0,0.00,0.00,0.00,0.00
2017-08-21 06:20:00,0,48842,0,0.00,0,0,0,0,43286,50000,1958,49603,0,0,0,0,0.00,0.00,0.00,0.00
2017-08-21 06:30:00,0,41904,6,0.09,0,0,0,0,10111,50000,14526,48748,0,61,18,0,0.00,0.90,0.27,0.00
2017-08-21 06:40:00,0,42221,61,0.97,0,0,0,0,21249,50000,8928,47418,61,61,0,61,0.00,7.50,2.19,0.20
2017-08-21 06:50:00,0,49891,0,0.00,0,0,0,0,49233,50000,240,50000,0,0,0,0,0.00,0.00,0.00,0.00
2017-08-21 07:00:00,0,50000,0,0.00,0,0,0,0,50000,50000,0,50000,0,0,0,0,0.00,0.00,0.00,0.00
2017-08-21 07:10:00,0,49154,0,0.00,0,0,0,0,45276,50000,1534,50000,0,0,0,0,0.00,0.00,0.00,0.00
2017-08-21 07:20:00,0,49762,0,0.00,0,0,0,0,48824,50000,395,50000,0,0,0,0,0.00,0.00,0.00,0.00
2017-08-21 07:30:00,0,48617,0,0.00,0,0,0,0,43640,50000,2039,50000,0,0,0,0,0.00,0.00,0.00,0.00
2017-08-21 07:40:00,0,48087,0,0.00,0,0,0,0,41196,50000,2815,50000,0,0,0,0,0.00,0.00,0.00,0.00
2017-08-21 07:50:00,0,48680,0,0.00,0,0,0,0,46608,50000,1196,48540,0,0,0,0,0.00,0.00,0.00,0.00
2017-08-21 08:00:00,0,50000,0,0.00,0,0,0,0,50000,50000,0,50000,0,0,0,0,0.00,0.00,0.00,0.00
2017-08-21 08:10:00,0,49585,0,0.00,0,0,0,0,46873,50000,954,50000,0,0,0,0,0.00,0.00,0.00,0.00
2017-08-21 08:20:00,0,49952,0,0.00,0,0,0,0,49524,50000,143,50000,0,0,0,0,0.00,0.00,0.00,0.00
2017-08-21 08:30:00,0,49601,0,0.00,0,0,0,0,47667,50000,741,50000,0,0,0,0,0.00,0.00,0.00,0.00
2017-08-21 08:40:00,0,49646,0,0.00,0,0,0,0,48513,50000,570,50000,0,0,0,0,0.00,0.00,0.00,0.00
2017-08-21 08:50:00,0,48610,0,0.00,0,0,0,0,43387,50000,2176,49956,0,0,0,0,0.00,0.00,0.00,0.00
2017-08-21 09:00:00,0,47622,0,0.00,0,0,0,0,40137,50000,3120,49202,0,0,0,0,0.00,0.00,0.00,0.00
2017-08-21 09:10:00,0,49469,0,0.00,0,0,0,0,45763,50000,1276,50000,0,0,0,0,0.00,0.00,0.00,0.00
2017-08-21 09:20:00,0,49254,0,0.00,0,0,0,0,47005,50000,933,49536,0,0,0,0,0.00,0.00,0.00,0.00
2017-08-21 09:30:00,0,46288,0,0.00,0,0,0,0,36761,50000,3868,47098,0,0,0,0,0.00,0.00,0.00,0.00
2017-08-21 09:40:00,0,48497,0,0.00,0,0,0,0,44023,50000,1934,49594,0,0,0,0,0.00,0.00,0.00,0.00
2017-08-21 09:50:00,0,49576,0,0.00,0,0,0,0,47516,50000,841,50000,0,0,0,0,0.00,0.00,0.00,0.00
2017-08-21 10:00:00,0,49177,0,0.00,0,0,0,0,46203,50000,1468,50000,0,0,0,0,0.00,0.00,0.00,0.00
2017-08-21 10:10:00,0,49926,0,0.00,0,0,0,0,49262,50000,221,50000,0,0,0,0,0.00,0.00,0.00,0.00
2017-08-21 10:20:00,0,47941,0,0.00,0,0,0,0,44113,50000,2409,49182,0,0,0,0,0.00,0.00,0.00,0.00
2017-08-21 10:30:00,0,49671,0,0.00,0,0,0,0,47559,50000,748,50000,0,0,0,0,0.00,0.00,0.00,0.00
2017-08-21 10:40:00,0,48712,0,0.00,0,0,0,0,46056,50000,1635,50000,0,0,0,0,0.00,0.00,0.00,0.00
2017-08-21 10:50:00,0,47739,0,0.00,0,0,0,0,44343,50000,2061,48372,0,0,0,0,0.00,0.00,0.00,0.00
2017-08-21 11:00:00,0,46302,0,0.00,0,0,0,0,41253,50000,2912,47350,0,0,0,0,0.00,0.00,0.00,0.00
2017-08-21 11:10:00,0,48595,0,0.00,0,0,0,0,43183,50000,2091,49797,0,0,0,0,0.00,0.00,0.00,0.00
2017-08-21 11:20:00,0,47238,0,0.00,0,0,0,0,42940,50000,2291,47842,0,0,0,0,0.00,0.00,0.00,0.00
2017-08-21 11:30:00,0,47880,0,0.00,0,0,0,0,43685,50000,2549,49624,0,0,0,0,0.00,0.00,0.00,0.00
2017-08-21 11:40:00,0,49556,0,0.00,0,0,0,0,46612,50000,1030,50000,0,0,0,0,0.00,0.00,0.00,0.00
2017-08-21 11:50:00,0,48125,0,0.00,0,0,0,0,45862,50000,1409,48179,0,0,0,0,0.00,0.00,0.00,0.00
2017-08-21 12:00:00,0,48163,0,0.00,0,0,0,0,40685,50000,2895,49942,0,0,0,0,0.00,0.00,0.00,0.00
2017-08-21 12:10:00,0,41301,0,0.00,0,0,0,0,36831,47498,3248,41833,0,0,0,0,0.00,0.00,0.00,0.00
2017-08-21 12:20:00,0,42387,0,0.00,0,0,0,0,37238,49387,4240,40354,0,0,0,0,0.00,0.00,0.00,0.00
2017-08-21 12:30:00,0,29596,6,0.01,0,0,0,0,14359,45577,9496,30361,0,61,18,0,0.00,0.10,0.03,0.00
2017-08-21 12:40:00,0,25586,53,0.42,0,0,0,0,21181,32691,3237,25158,51,61,4,51,0.15,1.15,0.31,0.28
2017-08-21 12:50:00,0,26594,56,0.30,0,0,0,0,15464,37899,8103,28406,51,61,5,56,0.10,0.60,0.17,0.25
2017-08-21 13:00:00,0,22348,53,0.25,0,0,0,0,18892,28538,2989,22532,51,61,4,52,0.05,0.85,0.24,0.15
2017-08-21 13:10:00,0,18784,33,0.30,0,0,0,0,15006,21205,1925,19020,0,61,27,51,0.00,1.00,0.39,0.05
2017-08-21 13:20:00,0,10160,51,0.70,0,0,0,0,5402,15660,3788,9326,51,52,0,51,0.15,1.55,0.41,0.57
2017-08-21 13:30:00,0,8524,54,0.55,0,0,0,0,4707,11588,2560,8906,51,61,4,52,0.00,1.95,0.74,0.15
2017-08-21 13:40:00,0,12437,49,0.04,0,0,0,0,10794,13779,1025,12758,0,61,24,61,0.00,0.10,0.03,0.05
2017-08-21 13:50:00,0,14668,0,0.00,0,0,0,0,12790,17532,1348,14494,0,0,0,0,0.00,0.00,0.00,0.00
2017-08-21 14:00:00,0,18305,0,0.00,0,0,0,0,16641,19965,1027,18124,0,0,0,0,0.00,0.00,0.00,0.00
2017-08-21 14:10:00,0,21575,0,0.00,0,0,0,0,20348,22699,941,22088,0,0,0,0,0.00,0.00,0.00,0.00
2017-08-21 14:20:00,0,27377,0,0.00,0,0,0,0,22142,32002,2991,28021,0,0,0,0,0.00,0.00,0.00,0.00
2017-08-21 14:30:00,0,39884,0,0.00,0,0,0,0,35290,47356,4244,38049,0,0,0,0,0.00,0.00,0.00,0.00
2017-08-21 14:40:00,0,47072,0,0.00,0,0,0,0,43507,50000,1848,47288,0,0,0,0,0.00,0.00,0.00,0.00
2017-08-21 14:50:00,0,46844,0,0.00,0,0,0,0,40072,50000,3106,47022,0,0,0,0,0.00,0.00,0.00,0.00
2017-08-21 15:00:00,0,47668,0,0.00,0,0,0,0,41438,50000,2857,48595,0,0,0,0,0.00,0.00,0.00,0.00
2017-08-21 15:10:00,0,49484,0,0.00,0,0,0,0,45963,50000,1215,50000,0,0,0,0,0.00,0.00,0.00,0.00
2017-08-21 15:20:00,0,49777,0,0.00,0,0,0,0,49031,50000,365,50000,0,0,0,0,0.00,0.00,0.00,0.00
2017-08-21 15:30:00,0,47752,0,0.00,0,0,0,0,38946,50000,3276,49390,0,0,0,0,0.00,0.00,0.00,0.00
2017-08-21 15:40:00,0,44480,0,0.00,0,0,0,0,39377,49473,3618,45546,0,0,0,0,0.00,0.00,0.00,0.00
2017-08-21 15:50:00,0,45045,0,0.00,0,0,0,0,37787,50000,3490,45084,0,0,0,0,0.00,0.00,0.00,0.00
2017-08-21 16:00:00,0,44369,0,0.00,0,0,0,0,39742,47733,2402,43936,0,0,0,0,0.00,0.00,0.00,0.00
2017-08-21 16:10:00,0,30187,0,0.00,0,0,0,0,26914,35945,3528,28208,0,0,0,0,0.00,0.00,0.00,0.00
2017-08-21 16:20:00,0,40434,0,0.00,0,0,0,0,32419,49013,4891,40069,0,0,0,0,0.00,0.00,0.00,0.00
2017-08-21 16:30:00,0,43364,0,0.00,0,0,0,0,38075,47833,2752,43136,0,0,0,0,0.00,0.00,0.00,0.00
2017-08-21 16:40:00,0,41855,0,0.00,0,0,0,0,33030,48338,5157,44418,0,0,0,0,0.00,0.00,0.00,0.00
2017-08-21 16:50:00,0,39991,0,0.00,0,0,0,0,36249,44309,2559,40467,0,0,0,0,0.00,0.00,0.00,0.00
2017-08-21 17:00:00,0,41936,0,0.00,0,0,0,0,34040,48442,4146,42616,0,0,0,0,0.00,0.00,0.00,0.00
2017-08-21 17:10:00,0,46546,0,0.00,0,0,0,0,38658,50000,3221,47190,0,0,0,0,0.00,0.00,0.00,0.00
2017-08-21 17:20:00,0,27661,43,0.73,0,0,0,0,23904,36707,3620,25748,0,61,22,52,0.00,1.65,0.56,0.75
2017-08-21 17:30:00,0,18155,52,0.97,0,0,0,0,15349,23009,2627,17448,51,52,0,52,0.30,2.00,0.60,0.88
2017-08-21 17:40:00,0,18702,60,1.71,0,0,0,0,16503,23035,2057,18417,52,61,3,61,0.60,3.70,0.97,1.58
2017-08-21 17:50:00,0,23840,56,0.65,0,0,0,0,19078,28646,2806,24125,51,61,5,56,0.25,1.45,0.38,0.50
2017-08-21 18:00:00,0,24467,51,0.21,0,0,0,0,21243,28062,2289,24122,51,51,0,51,0.05,0.45,0.12,0.20
2017-08-21 18:10:00,0,22929,51,0.31,0,0,0,0,18978,30243,3186,23356,51,51,0,51,0.20,0.55,0.13,0.25
2017-08-21 18:20:00,0,30980,26,0.04,0,0,0,0,23844,38778,5000,30174,0,61,27,26,0.00,0.20,0.06,0.00
2017-08-21 18:30:00,0,28918,0,0.00,0,0,0,0,14446,42753,9058,33114,0,0,0,0,0.00,0.00,0.00,0.00
2017-08-21 18:40:00,0,13053,0,0.00,0,0,0,0,6987,18104,4009,15116,0,0,0,0,0.00,0.00,0.00,0.00
2017-08-21 18:50:00,0,7917,7,0.00,0,0,0,0,7108,8967,645,7707,0,10,5,10,0.00,0.00,0.00,0.00
2017-08-21 19:00:00,0,11489,10,0.00,0,0,0,0,8278,14468,1891,11151,10,10,0,10,0.00,0.00,0.00,0.00
2017-08-21 19:10:00,0,17424,2,0.00,0,0,0,0,14955,20037,1919,17076,0,10,4,0,0.00,0.00,0.00,0.00
2017-08-21 19:20:00,0,28076,0,0.00,0,0,0,0,22530,40922,5306,27152,0,0,0,0,0.00,0.00,0.00,0.00
2017-08-21 19:30:00,0,11896,54,2.49,0,0,0,0,6733,21574,4867,10642,52,61,4,52,0.30,4.90,1.16,2.50
2017-08-21 19:40:00,0,9169,54,1.43,0,0,0,0,6615,13935,2577,8038,52,61,4,52,0.35,3.35,1.02,1.15
2017-08-21 19:50:00,0,15842,51,0.21,0,2,1,0,11212,21870,3704,14435,51,52,0,51,0.05,0.40,0.12,0.15
2017-08-21 20:00:00,2,20154,51,0.33,2,2,0,2,17782,23527,2129,19492,51,51,0,51,0.05,0.80,0.24,0.28
2017-08-21 20:10:00,2,6480,59,29.79,2,2,0,2,1719,15726,4424,4948,51,63,5,62,2.70,88.60,25.65,22.10
2017-08-21 20:20:00,2,6439,62,22.61,2,2,0,2,4510,8789,1156,6064,62,62,0,62,15.15,29.40,4.45,21.48
2017-08-21 20:30:00,2,9966,62,11.28,2,2,0,2,8349,11843,1071,9896,61,62,0,62,6.05,17.35,3.93,10.07
2017-08-21 20:40:00,2,15104,58,2.17,2,2,0,2,10717,23441,4272,12628,52,61,4,61,0.55,3.75,1.16,2.30
2017-08-21 20:50:00,2,13225,52,1.38,2,2,0,2,9475,18126,3176,12662,52,52,0,52,0.50,2.75,0.75,1.33
2017-08-21 21:00:00,2,21056,51,0.24,2,2,0,2,14943,25976,2827,21774,51,52,0,51,0.00,0.70,0.23,0.17
2017-08-21 21:10:00,2,28278,0,0.00,2,2,0,2,19987,37091,5798,28104,0,0,0,0,0.00,0.00,0.00,0.00
2017-08-21 21:20:00,1,43976,0,0.00,0,2,1,0,38055,50000,4277,42927,0,0,0,0,0.00,0.00,0.00,0.00
2017-08-21 21:30:00,0,46509,0,0.00,0,0,0,0,41099,50000,2746,47216,0,0,0,0,0.00,0.00,0.00,0.00
2017-08-21 21:40:00,0,27421,0,0.00,0,0,0,0,21117,47695,7323,25966,0,0,0,0,0.00,0.00,0.00,0.00
2017-08-21 21:50:00,0,28826,0,0.00,0,0,0,0,8708,43764,13742,34953,0,0,0,0,0.00,0.00,0.00,0.00
2017-08-21 22:00:00,0,6037,6,0.00,0,0,0,0,4704,7568,859,6212,0,10,5,10,0.00,0.00,0.00,0.00
2017-08-21 22:10:00,0,3965,10,0.00,0,0,0,0,3288,5085,553,3901,10,10,0,10,0.00,0.00,0.00,0.00
2017-08-21 22:20:00,0,7946,10,0.00,0,0,0,0,6048,9720,1310,8004,10,10,0,10,0.00,0.00,0.00,0.00
2017-08-21 22:30:00,0,16388,8,0.01,0,0,0,0,13278,19199,1911,16134,0,61,18,0,0.00,0.10,0.03,0.00
2017-08-21 22:40:00,0,20375,11,0.02,0,0,0,0,11275,29821,5940,21120,0,61,23,0,0.00,0.15,0.05,0.00
2017-08-21 22:50:00,0,12843,17,0.25,0,0,0,0,7074,21303,4963,13168,0,61,27,0,0.00,1.60,0.49,0.00
2017-08-21 23:00:00,0,9731,51,0.29,0,0,0,0,7855,11564,1346,9442,51,52,0,51,0.05,0.85,0.22,0.23
2017-08-21 23:10:00,0,9090,44,0.04,0,0,0,0,4597,12499,2654,9310,10,61,22,56,0.00,0.15,0.05,0.03
2017-08-21 23:20:00,0,4794,10,0.00,0,0,0,0,4483,5280,215,4747,10,10,0,10,0.00,0.00,0.00,0.00
2017-08-21 23:30:00,0,5183,10,0.00,0,0,0,0,4307,6111,581,5106,10,10,0,10,0.00,0.00,0.00,0.00
2017-08-21 23:40:00,0,3833,10,0.00,0,0,0,0,2991,4911,544,3799,10,10,0,10,0.00,0.00,0.00,0.00
2017-08-21 23:50:00,0,3538,10,0.00,0,0,0,0,3293,3979,196,3538,10,10,0,10,0.00,0.00,0.00,0.00
